TimeMST,TemperatureF,Dew PointF,Humidity,Sea Level PressureIn,VisibilityMPH,Wind Direction,Wind SpeedMPH,Gust SpeedMPH,PrecipitationIn,Events,Conditions,WindDirDegrees,DateUTC
12:17 AM,-2.2,-9.4,71,29.59,1.5,West,15.0,23.0,0.00,Snow,Light Snow,280,2013-01-12 07:17:00
12:32 AM,-2.2,-9.4,71,29.59,2.5,WNW,12.7,18.4,0.01,Snow,Light Snow,290,2013-01-12 07:32:00
12:53 AM,-2.9,-9.9,72,29.86,2.0,West,12.7,-,0.01,Snow,Light Snow,280,2013-01-12 07:53:00
1:19 AM,-2.2,-9.4,71,29.60,3.0,WNW,8.1,16.1,0.00,Snow,Light Snow,290,2013-01-12 08:19:00
1:31 AM,-2.2,-9.4,71,29.60,2.5,WNW,9.2,-,0.00,Snow,Light Snow,290,2013-01-12 08:31:00
1:53 AM,-2.0,-9.0,72,29.88,2.0,WNW,8.1,-,0.00,Snow,Light Snow,290,2013-01-12 08:53:00
2:10 AM,-2.2,-7.6,78,29.61,1.8,WNW,5.8,-,0.01,Snow,Light Snow,300,2013-01-12 09:10:00
2:41 AM,-0.4,-5.8,78,29.62,2.5,Variable,3.5,-,0.01,Snow,Light Snow,0,2013-01-12 09:41:00
2:53 AM,1.0,-6.0,72,29.89,2.0,NNW,10.4,19.6,0.01,Snow,Light Snow,340,2013-01-12 09:53:00
3:08 AM,1.4,-5.8,72,29.64,3.0,North,9.2,-,0.01,Snow,Light Snow,360,2013-01-12 10:08:00
3:53 AM,1.9,-7.1,66,29.92,8.0,Variable,5.8,-,0.01,,Overcast,0,2013-01-12 10:53:00
4:13 AM,3.2,-5.8,66,29.66,2.5,Variable,3.5,-,0.00,Snow,Light Snow,0,2013-01-12 11:13:00
4:24 AM,3.2,-5.8,66,29.66,3.0,Variable,3.5,-,0.00,Snow,Light Snow,0,2013-01-12 11:24:00
4:53 AM,3.0,-5.1,69,29.95,5.0,North,10.4,21.9,0.00,Snow,Light Snow,350,2013-01-12 11:53:00
5:53 AM,1.9,-6.0,69,29.99,3.0,NNW,11.5,21.9,0.00,Snow,Light Snow,340,2013-01-12 12:53:00
6:53 AM,1.0,-7.1,69,30.04,2.5,North,11.5,21.9,0.00,Snow,Light Snow,350,2013-01-12 13:53:00
7:17 AM,1.4,-7.6,66,29.75,4.0,NNW,9.2,21.9,0.01,Snow,Light Snow,340,2013-01-12 14:17:00
7:53 AM,1.0,-8.0,66,30.09,5.0,Variable,6.9,18.4,0.01,Snow,Light Snow,0,2013-01-12 14:53:00
8:53 AM,1.0,-7.1,69,30.14,5.0,Variable,5.8,-,N/A,,Haze,0,2013-01-12 15:53:00
9:11 AM,1.4,-7.6,66,29.83,2.0,NNW,4.6,-,0.00,Snow,Light Snow,330,2013-01-12 16:11:00
9:27 AM,1.4,-5.8,72,29.84,1.8,WNW,6.9,-,0.00,Snow,Light Snow,300,2013-01-12 16:27:00
9:34 AM,1.4,-5.8,72,29.84,1.8,NW,3.5,-,0.00,Snow,Light Snow,310,2013-01-12 16:34:00
9:53 AM,1.9,-6.0,69,30.17,1.8,NW,6.9,-,0.00,Snow,Light Snow,310,2013-01-12 16:53:00
10:02 AM,1.4,-5.8,72,29.86,2.5,Variable,4.6,-,0.00,Snow,Light Snow,0,2013-01-12 17:02:00
10:14 AM,1.4,-5.8,72,29.86,3.0,Variable,5.8,-,0.00,,Haze,0,2013-01-12 17:14:00
10:38 AM,3.2,-5.8,66,29.86,2.5,NW,6.9,-,0.00,Snow,Light Snow,320,2013-01-12 17:38:00
10:53 AM,3.0,-5.1,69,30.18,2.5,NNW,4.6,-,0.00,Snow,Light Snow,330,2013-01-12 17:53:00
11:05 AM,3.2,-4.0,72,29.85,1.8,WNW,4.6,-,0.01,Snow,Light Snow,290,2013-01-12 18:05:00
11:15 AM,3.2,-4.0,72,29.85,2.0,NW,5.8,-,0.01,Snow,Light Snow,310,2013-01-12 18:15:00
11:30 AM,3.2,-2.2,78,29.84,1.5,West,3.5,-,0.01,Snow,Light Snow,270,2013-01-12 18:30:00
11:49 AM,5.0,-2.2,72,29.84,2.5,West,4.6,-,0.01,Snow,Light Snow,280,2013-01-12 18:49:00
11:53 AM,5.0,-2.0,73,30.16,3.0,WNW,5.8,-,0.01,Snow,Light Snow,290,2013-01-12 18:53:00
12:17 PM,5.0,-2.2,72,29.83,4.0,West,5.8,-,0.00,Snow,Light Snow,260,2013-01-12 19:17:00
12:42 PM,5.0,-2.2,72,29.83,2.5,West,3.5,-,0.00,Snow,Light Snow,280,2013-01-12 19:42:00
12:53 PM,3.9,-2.0,76,30.15,2.5,West,4.6,-,0.00,Snow,Light Snow,260,2013-01-12 19:53:00
1:04 PM,5.0,-2.2,72,29.83,4.0,WSW,4.6,-,0.00,,Haze,250,2013-01-12 20:04:00
1:53 PM,7.0,-0.9,70,30.14,3.0,Calm,Calm,-,0.01,,Haze,0,2013-01-12 20:53:00
2:34 PM,6.8,-0.4,72,29.85,2.0,North,4.6,-,0.00,Snow,Light Snow,10,2013-01-12 21:34:00
2:42 PM,6.8,-0.4,72,29.85,1.8,North,3.5,-,0.00,Snow,Light Snow,350,2013-01-12 21:42:00
2:53 PM,7.0,-0.0,73,30.14,1.8,North,4.6,-,0.00,Snow,Light Snow,360,2013-01-12 21:53:00
3:00 PM,6.8,-0.4,72,29.85,2.5,North,4.6,-,0.00,,Haze,360,2013-01-12 22:00:00
3:08 PM,6.8,-0.4,72,29.85,4.0,North,5.8,-,0.00,,Haze,10,2013-01-12 22:08:00
3:53 PM,6.1,-0.9,73,30.14,2.5,North,3.5,-,0.01,Snow,Light Snow,360,2013-01-12 22:53:00
4:16 PM,6.8,-0.4,72,29.85,1.8,North,5.8,-,0.00,Snow,Light Snow,10,2013-01-12 23:16:00
4:42 PM,6.8,-0.4,72,29.85,3.0,Calm,Calm,-,0.00,Snow,Light Snow,0,2013-01-12 23:42:00
4:53 PM,5.0,-0.0,80,30.15,3.0,Calm,Calm,-,0.00,Snow,Light Snow,0,2013-01-12 23:53:00
5:34 PM,5.0,-0.4,78,29.85,2.5,Variable,3.5,-,0.01,Snow,Light Snow,0,2013-01-13 00:34:00
5:53 PM,5.0,-0.0,80,30.15,3.0,Calm,Calm,-,0.01,Snow,Light Snow,0,2013-01-13 00:53:00
6:53 PM,3.9,-2.0,76,30.17,10.0,WNW,3.5,-,0.00,,Overcast,290,2013-01-13 01:53:00
7:53 PM,3.9,-4.0,70,30.17,10.0,NNW,3.5,-,N/A,,Overcast,330,2013-01-13 02:53:00
8:53 PM,3.9,-5.1,66,30.16,10.0,Calm,Calm,-,N/A,,Overcast,0,2013-01-13 03:53:00
9:53 PM,1.0,-4.0,79,30.18,10.0,South,5.8,-,N/A,,Overcast,190,2013-01-13 04:53:00
10:53 PM,1.9,-2.9,80,30.18,10.0,Variable,3.5,-,N/A,,Overcast,0,2013-01-13 05:53:00
11:53 PM,1.0,-5.1,75,30.19,9.0,Calm,Calm,-,N/A,,Overcast,0,2013-01-13 06:53:00